GFSWCAN_sfc_wetblb_342.txt.gz
Wetbulb
47.83 47.88 48.00 47.80 48.08 48.31 48.51 48.61 48.87 48.95 49.08 49.03 49.33 49.52 49.76 49.90 50.35 46.87 42.30 45.87 42.38 37.45 37.15 39.26 39.24 35.73 35.34 34.75 31.45 32.71 33.06 33.43 32.17 30.04 30.61 33.74 34.47 36.56 35.91 37.45 36.21 34.93 30.63 31.57 31.89 30.27 28.81 41.68 40.58 39.83 41.59 45.47 42.18 43.01
47.65 47.71 47.74 47.93 47.92 48.17 48.35 48.58 48.65 48.80 48.96 49.02 49.06 49.33 49.63 49.81 50.03 49.17 39.72 44.57 46.12 40.35 36.88 40.83 41.27 42.72 41.12 40.20 36.53 35.51 33.93 33.41 36.31 33.34 32.01 34.00 30.69 32.18 30.93 29.06 38.03 33.39 37.22 34.99 35.45 36.56 42.08 41.75 41.52 42.95 43.32 42.74 43.23 41.34
47.88 47.85 47.75 47.73 47.83 48.03 48.06 48.40 48.44 48.57 48.79 49.09 49.43 49.15 49.20 49.50 49.57 48.33 41.32 41.14 42.29 39.42 37.88 36.66 36.40 41.08 43.80 43.30 44.11 36.04 36.75 37.69 36.65 38.96 35.26 34.29 29.81 33.26 27.24 28.30 31.34 34.67 36.80 33.06 34.58 41.05 37.82 38.30 45.21 44.34 45.13 45.48 46.94 47.37
47.62 47.73 47.69 47.58 47.55 47.72 47.93 48.12 48.10 48.54 48.84 49.04 49.17 49.22 49.44 49.87 49.66 49.06 43.35 42.86 42.95 39.45 32.84 31.47 40.38 37.61 42.67 43.65 43.20 42.78 40.60 40.64 39.51 38.36 35.45 33.07 31.73 36.79 31.55 31.95 31.32 34.72 36.14 33.21 33.36 35.52 39.77 42.17 41.25 41.55 43.34 46.67 46.42 46.14
47.15 47.25 47.31 47.50 47.40 47.41 47.56 47.61 47.84 48.38 48.63 48.87 49.14 49.04 49.08 49.45 49.19 47.26 44.73 43.87 45.25 38.55 32.00 32.72 36.65 39.34 41.08 41.03 40.77 41.84 41.12 39.93 38.51 35.76 34.32 32.16 35.62 34.76 34.73 33.88 31.72 35.36 33.19 31.17 30.38 37.09 38.72 39.14 41.39 42.82 43.12 44.55 46.09 46.94
47.10 47.25 47.16 47.26 47.35 47.15 47.20 47.52 47.81 48.21 48.37 48.35 48.42 48.51 48.79 48.98 48.50 42.81 36.44 41.15 44.96 44.01 35.67 30.00 35.24 34.94 37.43 38.89 39.42 39.41 39.84 39.11 38.63 36.47 34.58 36.19 38.25 35.64 30.77 29.18 34.77 37.54 39.60 40.33 37.76 41.25 41.13 41.27 42.61 44.47 42.87 42.56 45.25 45.79
46.94 47.01 47.07 47.04 47.19 47.61 47.72 47.43 47.36 48.02 48.14 48.03 48.11 48.26 48.23 47.99 42.95 40.15 36.35 40.19 45.94 45.16 36.42 30.86 30.36 33.85 36.87 37.19 36.41 36.73 39.63 39.20 38.29 36.05 34.45 34.47 35.01 36.25 32.14 28.32 34.48 37.43 39.69 40.40 41.09 40.43 38.41 40.57 40.83 44.48 44.11 43.50 44.14 44.36
46.79 46.99 46.99 47.04 47.13 47.18 47.19 47.02 47.44 47.82 47.89 47.92 48.07 47.99 47.69 47.52 45.17 41.07 43.48 46.71 46.73 41.82 38.39 30.12 26.67 28.05 35.75 31.51 30.59 34.76 31.86 34.36 35.40 34.84 33.31 33.03 34.36 34.73 29.13 33.40 35.34 37.01 38.33 38.89 39.72 40.62 40.26 41.52 42.39 42.22 42.92 42.90 42.23 43.55
46.71 46.78 46.95 46.81 47.08 47.06 47.14 47.32 47.47 47.85 47.78 47.68 47.33 46.14 41.56 40.65 38.86 39.40 46.86 46.98 45.57 38.71 31.66 29.19 26.18 26.18 36.35 33.81 34.28 34.38 35.22 30.25 34.79 30.39 32.19 33.73 30.80 27.87 31.24 33.45 34.93 36.70 36.51 37.34 39.76 40.41 40.69 40.01 40.10 41.06 41.49 41.57 41.86 44.50
46.83 46.80 46.99 47.23 47.33 47.12 47.08 47.26 47.66 48.05 47.53 46.54 40.86 34.90 32.80 34.12 44.11 44.63 41.39 35.81 36.17 34.49 34.31 29.62 29.86 25.12 33.12 31.59 30.35 31.16 33.92 31.89 27.14 29.11 35.17 31.21 29.00 34.34 35.84 36.78 37.36 37.80 38.41 39.37 37.41 37.08 38.71 38.99 39.70 40.26 40.79 42.99 44.15 44.45
46.80 46.74 47.08 47.38 47.23 47.18 46.98 47.15 47.56 47.36 45.19 37.67 32.42 30.07 34.69 42.53 37.47 33.31 31.03 30.41 30.35 28.97 31.40 32.50 31.68 28.27 32.29 27.52 25.02 29.85 21.84 22.04 22.85 23.81 27.07 22.78 24.41 32.84 37.06 37.28 38.40 39.15 39.49 39.18 39.40 39.68 40.14 40.55 40.34 40.79 42.22 43.84 44.17 44.59
47.04 46.76 47.21 47.14 46.90 47.27 47.13 47.38 46.91 42.89 38.40 37.41 35.70 38.89 38.53 33.85 32.19 28.24 26.91 25.04 26.72 20.38 24.75 28.24 29.97 30.79 29.60 31.74 27.39 24.71 23.16 24.56 20.24 26.46 22.56 16.55 28.50 34.74 35.76 36.62 37.76 38.29 38.75 39.25 40.27 39.78 40.24 40.49 41.21 41.64 42.22 42.80 43.44 44.27
46.94 46.70 47.03 46.57 46.57 46.51 46.82 46.83 46.50 45.05 43.16 40.11 35.54 32.64 31.71 29.77 24.48 22.62 10.47 21.53 21.09 26.20 29.31 30.99 29.07 30.35 29.10 30.12 28.83 28.37 26.35 22.70 26.81 24.39 23.09 25.44 33.31 35.37 35.07 36.59 36.28 37.71 39.45 40.12 40.38 41.20 41.46 41.21 41.78 41.67 41.49 42.72 43.42 43.65
46.54 46.78 46.64 46.58 46.88 46.90 46.69 46.51 46.27 43.85 39.38 32.27 29.56 24.39 25.14 18.95 19.00 18.18 19.05 22.71 27.88 28.82 29.92 31.51 27.32 30.44 34.08 31.18 28.51 27.65 26.51 22.60 23.99 21.99 23.31 30.42 33.51 33.73 34.84 36.15 36.28 36.46 37.85 38.15 39.09 38.95 38.60 38.97 40.17 41.89 42.55 43.25 43.25 43.16
46.30 46.17 46.32 46.20 46.68 46.96 46.75 45.97 45.83 41.00 36.11 30.78 28.44 14.34 20.00 22.75 20.22 22.77 25.14 26.69 29.77 31.84 31.72 28.76 29.23 28.20 25.09 25.72 29.85 29.95 25.56 22.97 21.48 24.44 28.81 32.84 33.13 33.48 33.57 34.24 33.99 34.41 34.80 35.38 36.93 38.03 38.86 39.82 39.40 39.41 40.46 40.68 42.14 42.79
45.92 45.60 43.31 46.34 46.62 46.22 46.18 45.00 41.47 36.54 32.51 31.26 28.88 21.37 20.59 21.66 24.07 22.29 22.33 25.35 31.83 32.46 31.82 29.31 23.11 26.64 22.65 24.99 23.81 23.82 25.42 23.84 26.96 30.37 33.32 32.93 33.42 33.36 32.72 32.70 32.45 33.49 33.12 32.98 33.95 35.38 36.53 36.89 37.57 38.35 39.75 38.99 38.11 39.49
45.47 38.65 45.46 46.50 46.64 46.43 45.53 37.35 35.14 33.16 31.43 28.94 24.18 23.68 21.76 21.41 28.18 28.17 27.62 27.15 32.88 29.66 19.97 22.84 19.92 18.03 16.67 23.31 22.71 25.35 25.17 28.51 32.97 34.13 35.05 33.36 30.62 31.38 32.71 33.01 33.03 32.77 32.80 32.51 32.27 33.22 33.42 35.63 34.36 33.09 31.51 32.15 33.08 34.09
39.34 42.01 46.27 46.36 45.13 41.90 35.85 33.54 32.66 31.82 27.89 25.50 26.81 24.74 23.37 26.21 26.22 23.74 29.00 30.72 29.99 23.31 21.04 21.27 24.85 19.03 19.05 17.49 21.78 26.56 29.60 33.06 34.00 34.64 33.16 32.81 32.86 32.85 33.16 32.43 32.94 32.58 32.08 32.66 32.06 32.64 32.79 33.16 32.45 32.32 32.72 33.08 33.37 33.65
41.16 41.40 45.65 45.51 41.14 36.52 32.78 32.46 32.98 28.13 26.87 28.11 28.42 22.03 24.16 24.75 28.28 31.30 31.33 31.74 32.55 29.75 29.67 32.01 27.99 25.40 23.98 27.01 29.26 30.83 31.47 32.74 31.97 32.60 32.75 32.76 32.62 31.34 30.73 30.81 30.54 30.41 30.69 31.01 31.12 30.53 30.89 31.09 31.51 32.16 31.82 31.92 31.20 32.25
45.55 45.46 45.15 44.58 41.82 33.17 31.34 31.07 32.15 30.06 27.16 28.02 31.29 28.59 26.67 26.17 27.86 31.76 28.68 30.59 32.93 32.02 29.48 28.36 27.37 25.64 26.31 27.83 30.70 31.54 32.03 33.02 32.83 31.48 29.49 29.63 30.50 29.83 29.34 29.16 28.63 29.41 29.24 29.40 29.78 31.50 29.20 29.19 30.65 31.32 31.60 31.37 29.89 29.44
43.31 42.81 44.99 38.95 35.39 32.69 28.89 29.47 28.20 29.64 29.48 29.18 30.65 31.05 30.32 31.98 30.87 30.75 30.93 32.62 29.60 26.11 23.68 24.49 24.09 27.67 30.41 32.91 34.64 34.44 33.69 33.51 31.32 30.16 28.89 27.30 29.04 28.65 27.95 28.65 28.95 27.39 26.79 26.64 26.17 27.04 28.45 26.91 28.12 28.87 30.06 29.62 29.42 29.09
34.90 40.10 33.91 34.87 31.61 30.16 27.15 30.26 28.45 31.53 30.24 31.06 30.83 31.17 29.76 29.83 29.40 29.04 29.72 26.33 24.95 25.52 26.48 25.80 26.58 27.55 30.86 31.09 32.19 32.68 32.51 30.94 30.28 29.50 29.06 28.30 25.35 25.21 25.07 26.00 25.95 24.93 25.28 25.89 26.07 26.12 26.35 28.12 27.70 28.06 27.86 27.34 29.77 29.42
38.39 36.00 32.71 32.51 26.78 24.25 25.90 29.59 24.32 27.30 22.86 26.33 29.05 28.10 27.60 28.24 29.31 30.56 24.45 24.95 24.00 26.31 26.45 26.42 27.63 31.07 30.10 31.62 30.72 30.09 30.71 29.43 27.28 26.92 26.61 25.75 25.39 25.37 25.04 25.01 25.50 24.51 23.96 24.67 26.37 26.12 25.37 28.28 27.56 26.01 26.40 26.20 26.20 26.01
35.22 29.34 26.35 23.51 23.66 23.78 24.78 24.59 24.86 24.24 24.94 23.31 25.56 23.32 25.11 27.18 28.81 24.97 21.79 22.57 24.18 25.52 23.39 24.73 28.05 28.53 28.81 27.78 25.88 26.60 28.68 29.02 26.72 26.14 26.06 24.31 22.64 22.42 23.25 23.01 23.87 24.30 24.88 25.29 25.02 24.64 24.94 25.48 27.05 25.48 25.52 25.07 24.95 24.73
28.85 22.21 24.51 20.37 19.70 20.91 19.37 20.25 20.68 22.22 19.04 21.46 23.37 23.09 21.06 25.78 20.33 18.94 19.78 20.07 22.03 22.13 22.59 24.79 24.46 24.57 24.14 24.41 25.33 25.58 27.22 26.80 24.16 22.25 23.38 24.38 23.07 22.57 22.89 23.35 23.50 23.62 24.83 23.76 23.27 23.25 22.90 23.18 22.81 23.59 24.31 23.60 23.26 23.63
19.82 17.63 18.08 17.10 15.90 16.70 17.99 16.13 16.82 17.74 19.50 22.18 23.08 23.87 19.35 14.74 10.47 13.62 18.26 18.73 20.31 20.43 20.94 21.53 22.53 22.19 21.71 22.93 22.92 22.95 23.56 26.31 24.75 21.82 21.39 22.64 22.58 21.62 21.55 21.26 21.21 22.16 24.83 24.20 23.40 22.71 22.46 22.71 22.15 21.72 21.02 21.67 24.98 22.20
11.41 16.97 14.80 18.29 19.95 19.77 20.27 22.63 23.19 19.67 18.21 20.55 22.15 10.92 7.59 1.87 9.80 17.21 20.98 21.66 21.16 21.15 21.38 22.19 23.83 23.22 22.35 22.60 23.83 24.45 24.37 23.88 22.63 21.77 22.40 21.99 21.93 21.74 21.69 21.84 21.53 22.96 24.97 24.41 23.58 22.71 21.57 21.24 21.09 21.02 20.79 21.06 21.07 21.18
12.91 13.74 14.59 17.31 18.59 20.46 20.10 15.13 17.60 18.89 20.38 21.16 15.59 3.82 3.63 9.51 14.15 19.15 20.93 23.74 24.23 24.17 23.18 22.95 23.61 23.91 23.64 24.04 25.03 24.72 24.11 24.10 24.00 23.77 23.50 22.97 22.51 22.11 21.47 21.73 23.71 26.69 24.14 24.83 23.69 22.88 21.65 20.66 20.07 20.22 20.28 19.68 19.70 21.07
11.89 15.13 15.93 9.50 11.27 12.03 15.44 15.11 15.37 18.67 19.14 17.60 12.70 9.97 13.24 18.26 20.29 19.31 22.22 23.51 24.29 23.76 21.77 21.22 22.04 22.73 23.05 23.70 24.60 24.96 24.82 24.88 22.66 19.67 18.27 17.88 18.54 19.50 21.63 21.12 20.13 19.21 18.99 20.90 27.00 25.88 23.82 22.05 20.55 20.03 20.15 20.00 20.08 20.26
11.73 9.67 7.51 4.72 9.72 9.87 13.83 17.37 17.73 18.94 15.80 14.80 16.68 18.62 18.10 17.95 20.93 22.71 21.32 21.09 20.87 20.62 22.30 22.69 22.79 21.50 20.87 20.37 20.45 21.67 23.36 23.61 22.81 21.31 18.82 17.86 18.54 20.28 19.62 19.67 19.07 18.05 18.67 19.04 19.03 19.93 24.15 20.90 20.95 19.21 19.02 18.55 18.51 17.78
9.24 12.36 7.60 7.95 9.05 15.32 15.58 16.58 18.72 17.20 12.55 12.38 15.71 14.31 14.82 15.47 19.58 22.52 21.12 21.33 22.16 22.03 21.71 20.89 21.28 22.40 21.80 21.28 20.85 20.24 19.96 22.59 23.20 22.83 22.17 21.11 20.27 19.67 19.37 18.56 18.59 18.55 18.64 18.57 18.34 18.19 18.19 18.02 17.49 16.84 16.42 16.06 16.37 16.67
13.00 11.92 11.97 6.64 12.40 15.71 20.43 17.37 15.04 16.12 17.00 14.25 12.35 11.81 14.84 12.91 9.67 16.46 20.64 21.82 19.63 19.22 22.13 20.51 19.10 19.19 21.08 21.74 22.24 22.96 24.54 20.49 21.80 22.33 21.63 20.19 20.30 19.95 19.04 18.30 18.34 18.58 18.26 17.75 17.69 17.34 16.89 16.44 16.13 15.76 15.33 14.93 14.81 14.56
11.08 15.50 16.40 14.50 13.17 16.94 16.17 14.06 10.17 8.40 10.19 8.30 9.87 11.21 12.16 14.30 10.12 16.84 21.19 21.99 20.56 19.25 19.29 19.15 19.08 19.83 20.14 20.88 20.49 20.73 21.70 20.69 24.89 27.33 27.31 26.40 25.66 23.12 18.28 16.17 17.63 17.72 16.26 15.89 16.07 16.05 15.50 14.91 14.99 15.16 14.89 14.56 14.41 14.17

GFSWCAN_sfc_wetblb_345.txt.gz
Wetbulb
47.95 47.86 47.98 48.27 48.28 48.25 48.15 48.55 48.86 48.90 48.98 49.15 49.18 49.34 49.60 49.93 50.13 45.63 42.98 44.56 41.32 37.39 37.71 39.52 39.14 34.84 34.01 33.78 30.11 31.99 31.50 31.51 30.50 26.71 26.54 26.20 26.74 30.33 30.45 32.88 32.77 32.49 32.93 31.99 31.71 31.49 29.83 37.94 39.07 36.79 37.32 42.03 41.97 41.70
48.38 48.51 48.45 48.11 48.19 48.10 48.22 48.25 48.65 48.73 48.90 48.97 49.07 49.26 49.41 49.54 49.98 48.39 42.28 43.71 45.17 39.59 38.16 39.99 40.78 41.26 40.07 39.34 35.51 34.03 32.43 32.05 33.78 28.40 29.61 32.20 27.88 31.55 29.47 24.61 33.90 29.98 34.17 30.45 32.35 33.41 37.70 38.01 36.12 40.20 40.57 38.85 39.76 40.77
48.25 48.33 48.37 48.32 48.26 48.24 48.19 48.13 48.35 48.54 48.65 48.89 48.79 49.02 49.24 49.40 49.52 47.87 41.34 41.08 43.73 38.89 37.25 37.73 36.48 40.63 42.66 42.14 42.75 33.75 34.00 36.18 34.41 35.69 32.75 31.84 27.38 29.61 24.56 26.24 28.30 33.03 36.34 31.61 31.53 34.29 35.49 37.17 39.37 40.68 42.43 40.46 41.02 41.30
47.77 47.98 47.97 48.08 48.18 48.20 48.10 47.99 48.17 48.31 48.36 48.83 48.82 49.23 49.54 49.73 49.86 49.22 41.33 42.09 42.29 39.63 33.16 32.93 38.98 37.86 41.35 42.11 41.42 41.25 39.17 38.10 36.92 35.90 34.23 32.41 29.98 34.49 29.67 31.27 31.29 32.60 34.35 32.95 32.82 34.57 35.86 37.53 39.06 39.82 40.49 41.86 41.22 41.64
47.41 47.54 47.58 47.69 47.70 47.79 48.03 48.07 47.95 48.12 48.01 48.51 48.68 48.99 49.42 49.35 49.17 46.57 44.05 42.72 44.37 38.93 31.90 31.65 34.93 37.53 39.73 39.31 39.51 40.37 39.25 37.37 36.36 32.96 32.26 30.40 34.32 32.61 32.74 32.14 29.90 33.76 32.02 30.19 29.23 35.47 35.57 36.13 39.42 41.37 40.80 40.88 41.60 40.89
47.24 47.37 47.46 47.53 47.55 47.63 47.76 47.84 47.77 47.82 48.21 48.21 48.54 48.28 48.26 48.18 47.23 42.08 35.20 40.67 44.67 43.80 36.08 29.58 33.91 33.19 35.99 38.78 37.74 37.43 38.31 38.02 37.53 33.96 32.98 35.25 37.56 34.71 29.59 27.72 33.23 35.29 36.72 37.42 34.38 38.24 38.62 39.62 40.78 41.93 41.37 41.97 42.48 42.00
47.30 47.41 47.45 47.54 47.61 47.97 48.01 47.80 47.45 47.34 47.45 47.94 48.46 48.22 48.08 47.51 41.83 37.87 35.61 38.54 45.02 44.95 35.90 30.72 29.26 31.81 34.56 34.33 34.78 35.86 37.24 37.47 37.09 35.24 33.63 33.68 34.11 35.34 31.85 27.95 33.45 35.68 36.98 37.62 38.87 38.74 36.45 38.53 37.65 41.27 41.76 42.04 43.37 43.17
47.26 47.22 47.34 47.46 47.35 47.74 47.68 47.38 47.34 47.30 47.39 47.79 47.89 47.97 47.32 46.91 44.85 40.72 41.76 46.70 46.52 41.39 38.33 30.07 24.32 28.26 34.11 29.90 29.03 33.67 31.44 33.95 36.63 34.75 35.21 33.00 34.24 33.89 28.61 32.57 34.89 36.14 36.61 36.45 37.32 38.92 38.64 39.66 39.91 40.00 41.25 41.51 40.43 40.35
47.08 47.03 46.90 47.24 47.33 47.33 47.56 47.40 47.36 47.36 47.50 47.59 47.41 46.41 41.74 38.54 36.40 37.98 45.71 46.83 44.84 37.90 30.93 27.40 26.14 23.50 33.67 32.69 34.02 32.86 34.31 30.08 35.35 31.05 30.01 32.47 29.66 27.32 30.30 32.34 33.54 35.09 34.78 35.21 37.10 37.56 38.01 37.55 37.86 38.85 39.49 39.83 39.45 39.65
46.98 46.95 46.87 47.37 47.65 47.10 47.54 47.28 47.31 47.41 47.36 47.02 41.47 35.73 31.30 33.79 43.07 43.85 40.10 35.56 36.07 34.06 33.64 29.74 30.67 26.34 30.89 29.41 25.50 30.13 33.55 29.59 26.45 29.40 30.80 30.34 28.55 33.10 34.75 35.78 36.57 36.67 37.24 37.51 34.50 33.80 35.29 35.64 37.10 37.90 38.47 40.01 40.67 41.02
47.29 47.34 47.64 47.63 47.57 47.24 47.23 47.19 47.24 46.92 45.26 39.75 32.97 30.72 34.32 42.18 37.07 33.12 31.16 30.07 31.22 28.27 30.85 31.87 31.83 28.43 31.09 25.46 23.81 29.17 23.60 22.81 23.15 23.49 26.28 21.36 23.62 31.54 36.05 36.42 37.55 37.92 38.23 38.12 38.30 38.26 38.41 38.07 37.53 37.68 38.26 39.24 40.24 40.81
47.29 47.43 47.70 47.66 47.16 46.99 47.28 47.12 46.82 41.88 39.78 38.69 37.35 38.51 38.28 34.50 32.14 28.49 26.39 24.10 27.19 23.78 23.86 27.82 28.55 30.97 29.58 30.30 26.37 24.72 22.50 23.67 20.51 26.08 25.70 21.11 27.47 33.17 34.04 34.48 34.95 35.22 36.34 37.09 38.52 38.14 38.73 39.57 40.05 40.10 40.26 39.67 40.01 40.92
47.65 47.41 47.21 47.41 46.83 46.77 47.01 46.92 46.28 45.05 43.49 40.03 34.49 32.23 30.25 30.39 25.00 21.20 12.33 16.65 22.10 25.43 28.73 28.28 26.42 28.99 28.03 29.26 28.64 26.26 24.08 22.61 27.08 23.23 22.46 25.86 31.90 33.61 35.29 35.66 36.29 37.61 38.10 38.31 37.88 38.96 39.40 39.57 40.93 41.05 40.16 41.06 41.69 41.17
46.96 47.28 47.14 47.12 46.86 46.88 46.77 46.44 46.12 43.73 39.51 31.31 29.62 24.67 24.53 16.97 22.35 17.27 20.06 22.15 27.25 29.27 29.29 30.61 26.97 29.02 30.36 29.87 25.08 17.88 28.35 26.10 23.39 21.53 22.85 30.18 32.91 34.75 35.55 35.73 35.04 34.21 34.83 34.69 34.86 35.61 35.87 35.85 36.33 38.24 39.75 41.12 40.44 39.91
46.16 46.43 46.59 46.39 46.73 46.52 46.36 45.95 45.71 41.81 36.13 31.01 28.21 16.73 20.95 22.70 20.34 23.31 25.13 24.75 28.96 31.94 32.08 27.96 27.78 27.44 25.96 25.83 22.18 24.30 22.93 23.24 23.79 24.44 28.95 32.93 33.59 33.62 32.83 32.22 31.83 32.38 32.51 32.08 32.55 32.63 32.48 33.47 34.15 35.16 37.42 37.72 38.39 39.07
45.99 45.53 42.92 46.18 46.40 46.53 45.75 45.17 42.10 37.58 32.59 31.47 29.33 22.85 18.42 19.86 21.33 20.52 24.74 24.36 31.09 31.41 30.38 27.53 22.13 24.43 25.12 27.01 23.35 22.79 15.29 20.99 25.37 28.76 32.22 33.39 32.07 31.42 30.21 30.89 31.75 32.92 32.43 31.67 31.82 31.70 33.46 33.81 33.67 34.87 34.27 33.35 33.36 34.20
45.03 38.83 45.80 46.58 46.23 45.41 44.40 37.74 35.52 32.82 31.85 29.26 25.92 24.24 22.02 20.98 24.42 25.55 28.94 28.18 33.18 27.60 18.70 20.17 14.97 17.75 15.77 20.35 21.67 22.75 22.99 26.21 30.68 32.30 34.06 31.96 30.78 30.35 30.66 30.79 30.87 31.55 31.00 30.82 31.46 31.20 31.14 32.33 34.38 33.37 31.65 33.19 34.02 34.47
38.47 40.57 46.21 46.14 43.44 40.96 34.93 33.78 32.64 31.80 28.66 28.92 27.05 22.68 20.73 23.39 23.24 25.15 29.73 31.71 29.93 25.08 23.27 19.27 20.42 14.47 14.70 12.78 19.42 24.65 27.69 30.87 32.43 33.22 32.81 31.52 31.39 30.64 30.76 29.37 29.74 29.86 29.56 29.38 30.22 29.69 30.15 29.83 30.14 30.45 30.98 31.65 32.50 32.47
40.26 41.14 45.76 44.95 40.28 35.53 33.07 32.42 32.40 27.41 28.06 20.83 21.94 20.09 21.22 23.19 26.34 28.57 29.84 31.47 33.11 30.15 27.78 30.03 24.92 22.70 23.00 24.97 27.18 29.39 29.93 30.65 30.66 32.26 32.00 30.85 30.57 29.90 29.73 29.41 28.50 28.22 27.57 27.28 29.01 27.80 28.30 28.64 29.08 30.18 30.08 30.11 28.60 29.67
45.26 45.24 45.14 44.17 41.03 33.46 31.52 31.91 32.41 29.33 25.39 27.46 22.41 22.77 25.03 27.42 29.65 31.10 30.62 30.32 31.79 31.44 29.76 28.58 26.59 22.88 22.29 25.01 28.20 29.65 31.60 32.71 31.94 31.05 28.79 28.93 29.64 29.04 28.08 28.01 27.51 27.23 26.84 26.66 26.85 29.97 26.73 26.60 27.89 28.74 29.60 28.48 27.03 27.17
42.69 41.19 44.37 37.74 32.93 32.86 30.22 29.89 29.21 29.85 26.32 28.53 26.06 30.15 29.92 31.60 30.01 30.07 29.86 32.84 30.44 29.47 26.16 24.12 24.72 27.63 30.19 30.67 31.52 33.60 32.93 33.46 31.16 30.90 28.76 26.75 27.84 27.48 26.31 26.38 26.94 26.02 24.97 24.70 24.45 24.61 26.58 25.27 26.47 27.61 27.21 27.90 27.58 26.96
35.21 41.72 33.70 34.98 32.06 30.69 29.21 30.28 24.68 26.25 30.17 30.51 30.32 30.46 28.53 28.73 29.26 29.71 30.26 26.47 25.31 25.19 25.88 25.10 25.80 26.68 26.91 30.47 31.79 32.39 31.41 30.41 29.52 28.90 28.33 27.39 24.58 24.16 23.90 24.56 24.85 23.98 23.79 23.48 24.28 24.26 24.83 26.33 26.40 26.47 26.28 25.90 27.67 27.71
39.25 36.91 33.26 31.61 26.11 26.69 26.85 30.61 27.89 28.51 25.49 26.25 28.71 27.25 27.63 28.34 27.96 30.65 24.20 25.27 24.84 26.33 25.55 25.07 26.04 28.35 29.65 30.32 30.19 29.50 30.06 28.76 26.42 25.82 25.63 24.98 24.60 24.03 22.85 22.37 22.86 22.05 21.79 21.87 23.14 23.12 23.83 27.50 26.45 25.19 25.73 25.55 25.26 25.01
35.96 30.65 29.81 26.22 20.58 21.85 26.02 23.56 25.56 22.58 25.52 23.23 23.26 23.32 25.23 26.88 28.87 24.61 21.29 21.98 21.21 21.39 21.17 21.14 26.15 28.35 27.35 26.75 25.11 25.72 27.47 27.85 25.90 24.95 25.10 23.32 21.59 21.46 22.08 22.46 23.17 23.54 23.24 22.85 23.03 22.40 22.28 22.20 25.43 23.61 23.82 23.70 23.55 22.81
29.72 24.02 21.31 17.19 18.80 18.64 18.58 19.46 21.22 23.15 20.88 19.37 22.00 22.12 23.22 24.69 18.54 17.83 18.29 19.23 20.67 20.00 18.60 21.70 21.41 22.47 21.01 21.76 24.17 23.96 25.81 25.81 23.13 20.87 21.40 23.17 21.93 21.55 22.03 22.57 22.76 22.95 24.33 22.60 21.84 21.86 21.41 21.71 21.30 21.23 22.78 22.18 21.09 21.03
16.90 20.42 17.22 15.98 15.86 18.58 18.30 17.47 19.15 20.76 21.17 18.55 20.86 22.73 20.27 16.76 11.48 11.01 17.56 17.59 17.58 16.89 19.16 20.00 21.12 19.78 19.43 20.88 21.67 22.06 22.86 24.83 23.57 20.58 20.07 20.61 20.50 20.09 20.86 20.44 19.98 20.89 23.86 22.85 21.80 20.88 20.70 20.91 20.40 19.97 19.41 19.73 23.08 20.24
16.94 15.19 15.89 18.94 20.90 20.89 20.27 22.91 23.96 21.23 16.48 14.50 18.17 14.73 11.78 6.14 7.48 15.95 19.16 18.25 17.13 16.92 19.04 19.80 19.35 18.30 18.37 20.90 23.20 24.14 24.31 23.60 22.41 21.38 22.04 21.64 21.71 21.22 20.88 21.21 20.81 22.10 23.86 23.11 21.60 20.58 19.71 19.57 19.49 19.43 19.29 19.70 19.62 19.63
12.66 14.29 17.44 18.95 19.68 20.84 19.22 15.70 13.60 13.52 16.21 19.67 16.44 8.29 8.17 10.69 12.86 17.92 18.86 19.50 20.08 20.26 20.29 21.27 22.93 22.61 22.41 22.70 23.49 23.39 23.45 23.88 23.70 23.78 23.67 23.09 22.86 22.33 21.20 20.51 21.65 25.80 22.67 23.53 22.42 21.06 19.95 19.30 18.91 19.08 18.95 18.39 18.56 19.82
12.88 16.17 17.55 12.83 11.46 11.89 13.96 15.36 14.25 17.62 18.28 17.60 12.81 10.14 11.40 17.23 19.19 19.73 22.07 20.94 21.03 19.78 18.30 18.84 20.26 21.69 22.76 23.29 23.48 24.00 24.44 24.65 21.94 20.30 19.29 18.44 18.88 19.31 21.36 20.86 20.22 19.11 18.18 19.79 26.46 24.92 22.74 20.75 19.48 18.95 19.05 18.78 18.65 18.82
13.12 11.54 9.76 6.74 6.39 7.79 12.54 16.66 15.99 15.87 14.73 14.44 15.54 16.39 17.15 16.78 18.35 23.74 20.51 18.40 18.75 17.31 18.07 19.07 19.60 20.31 20.23 20.26 19.99 20.90 22.75 23.62 23.87 22.21 19.41 18.25 18.64 20.29 19.59 19.14 18.84 17.69 18.32 17.94 17.92 18.89 22.86 19.64 19.58 17.67 17.44 16.98 16.98 15.96
10.46 12.70 7.72 8.11 7.17 11.87 14.61 16.43 16.73 15.72 11.64 11.67 14.20 13.20 14.02 14.03 17.27 19.98 19.99 17.86 18.75 20.87 20.53 19.42 21.25 22.41 21.59 20.89 20.53 19.51 19.27 22.19 22.27 22.11 21.78 20.49 19.54 18.84 18.44 17.85 17.95 17.90 18.12 17.84 17.22 16.75 16.83 16.52 15.95 15.35 14.87 14.43 14.70 15.04
10.98 10.66 11.24 5.25 10.43 14.79 19.38 16.96 14.24 14.63 14.62 12.48 9.87 10.80 13.64 12.17 9.13 14.59 17.49 18.04 17.17 16.87 21.24 21.27 20.30 20.12 22.52 23.00 22.21 21.07 24.34 19.84 21.19 20.28 19.59 18.33 19.12 18.98 18.59 17.84 17.53 17.98 17.42 16.66 16.32 15.83 15.48 15.17 14.86 14.32 13.77 13.42 13.34 13.32
8.67 13.41 14.07 12.03 9.32 11.35 14.79 13.05 9.69 7.66 9.82 7.86 8.59 9.89 11.15 13.56 10.28 15.65 19.14 19.96 19.78 18.93 19.96 20.68 21.22 21.92 21.13 21.43 21.20 21.24 22.08 19.99 22.99 25.81 25.85 25.16 24.25 21.70 16.34 14.47 16.14 16.44 15.05 14.74 14.94 14.76 14.22 13.58 13.82 14.02 13.80 13.58 13.51 13.36

GFSWCAN_sfc_wetblb_351.txt.gz
Wetbulb
48.18 48.03 48.09 48.19 48.32 48.51 48.51 48.41 48.41 48.48 48.38 48.58 49.09 49.14 49.24 49.38 49.35 43.69 40.75 42.11 38.89 36.42 34.91 37.93 37.28 33.57 32.29 31.23 27.99 29.84 29.76 29.84 29.30 27.05 26.27 25.75 24.93 26.44 25.69 27.45 26.79 25.86 24.68 24.22 25.63 23.54 21.49 36.16 36.02 32.44 34.79 37.84 38.05 38.09
48.21 48.18 48.19 48.52 48.71 48.99 49.27 49.12 49.00 48.67 48.53 48.96 48.79 48.99 48.76 49.13 49.32 45.33 37.80 41.90 43.95 39.85 38.14 38.38 39.14 40.38 38.56 37.36 33.54 33.95 33.48 32.18 32.61 27.43 27.17 29.50 24.75 25.64 24.82 21.55 30.30 23.62 29.92 26.81 29.57 29.64 37.20 37.61 35.75 38.01 38.64 38.00 38.74 38.72
48.20 48.19 48.15 48.34 48.39 48.49 48.68 48.87 49.02 49.00 49.02 49.24 49.21 48.57 48.78 48.71 49.22 46.29 38.90 41.01 42.52 38.71 36.28 34.82 34.53 38.93 40.26 40.38 40.43 33.09 32.92 35.02 32.63 34.70 31.05 29.73 22.25 26.66 20.94 21.89 24.15 27.80 31.85 27.58 27.84 31.10 32.87 35.22 37.56 38.45 39.23 39.19 40.50 40.61
48.06 47.82 47.90 48.25 48.32 48.35 48.30 48.61 48.67 48.80 48.86 48.99 48.78 48.41 48.27 48.75 49.00 47.88 41.01 41.06 38.98 38.95 32.12 30.42 37.18 34.49 39.11 40.35 39.71 39.83 37.60 36.11 34.64 35.83 33.14 30.80 25.57 29.79 24.77 26.82 26.22 29.22 30.36 28.68 28.59 31.72 33.67 35.28 36.83 37.76 38.28 39.24 39.12 39.89
47.38 47.47 47.45 47.54 47.74 47.81 47.99 48.31 48.48 48.45 48.47 48.57 48.57 48.28 48.51 48.50 48.49 44.50 40.97 41.39 44.07 37.72 26.59 30.36 33.93 36.20 37.75 37.74 37.74 38.70 37.47 35.70 35.38 33.27 31.99 29.32 29.88 30.41 30.47 29.68 26.85 30.89 28.72 26.45 25.61 32.78 32.65 33.67 37.02 38.48 37.30 37.28 38.38 38.27
47.81 47.90 47.87 47.85 47.89 47.98 47.98 48.11 48.19 48.20 48.23 48.29 48.15 48.13 48.05 48.00 46.64 39.04 32.95 37.24 42.54 42.67 35.94 29.62 33.97 31.47 34.35 35.72 35.70 35.67 36.28 36.15 36.06 34.49 32.04 33.29 34.84 32.39 27.12 23.89 30.40 32.74 33.98 34.24 31.50 35.46 35.54 36.46 37.72 38.60 37.38 37.99 38.97 38.97
47.55 47.82 48.02 48.03 48.00 47.98 48.00 47.86 47.90 48.04 48.08 48.08 48.07 47.88 48.08 47.55 40.60 37.53 32.55 37.07 44.65 44.73 36.14 29.41 28.38 30.47 31.10 32.23 32.71 32.57 34.30 36.13 35.73 34.40 32.40 31.72 32.14 33.60 29.53 24.13 30.64 33.44 34.80 35.33 36.35 35.82 33.39 35.72 34.98 38.42 38.77 39.04 40.28 39.77
47.00 47.15 47.50 47.74 47.89 47.96 48.02 47.92 47.90 47.88 47.87 47.95 47.81 48.01 47.72 46.83 43.96 39.27 41.24 45.85 45.53 40.49 37.84 29.47 25.57 26.38 31.17 27.89 27.36 32.28 33.19 34.78 34.83 33.59 32.18 30.07 31.22 32.22 26.10 29.96 32.49 34.16 34.77 34.51 35.05 36.31 35.57 36.82 37.38 37.30 38.38 38.27 37.02 36.93
46.72 46.83 47.03 47.24 47.43 47.73 47.72 47.80 47.81 47.71 47.71 47.69 47.77 46.75 40.51 38.01 36.52 36.81 45.21 46.50 42.66 37.46 30.99 25.35 17.43 20.11 31.76 31.70 32.04 30.11 32.59 30.16 34.70 31.71 30.80 31.57 27.57 26.55 29.12 30.18 31.65 33.06 31.92 33.19 35.34 35.67 35.71 35.21 35.36 36.11 36.62 36.73 35.99 36.40
46.57 46.75 46.95 47.13 47.35 47.17 47.31 47.48 47.62 47.55 47.52 47.02 43.19 37.03 32.09 34.55 42.90 44.08 39.44 35.58 35.95 33.88 34.05 29.37 28.38 24.87 29.63 28.58 29.33 29.29 32.36 29.87 25.00 28.26 31.60 29.51 27.65 32.20 33.07 34.15 34.93 34.92 34.52 34.38 33.49 32.92 34.24 34.03 34.79 35.52 36.26 37.61 37.88 37.97
46.66 46.83 47.26 47.60 47.34 47.07 47.04 47.29 47.49 47.16 46.04 40.74 34.37 32.65 33.38 42.08 37.56 34.70 30.41 29.31 25.24 27.47 31.02 31.61 29.47 26.74 30.30 25.43 25.77 29.58 21.34 20.46 20.57 20.87 26.96 23.45 22.13 27.73 31.84 33.93 36.17 36.14 36.18 36.03 35.24 34.74 34.44 33.60 32.63 32.71 33.09 34.02 34.84 35.44
47.67 47.49 47.48 47.57 47.02 47.07 47.28 47.50 47.39 43.34 40.34 39.66 38.38 39.85 39.39 34.21 31.58 28.76 24.81 23.12 26.51 19.53 23.84 28.41 29.58 30.99 28.33 28.41 25.82 25.49 24.30 24.51 18.85 25.43 25.11 20.17 25.74 31.88 34.59 34.21 33.62 33.47 32.80 31.83 31.94 31.64 32.41 32.77 32.96 32.38 31.93 32.05 32.65 34.03
47.04 47.15 46.69 47.07 46.93 47.10 47.43 47.53 47.52 46.15 43.46 40.23 34.33 31.57 30.12 29.32 24.01 20.39 11.20 21.74 22.71 27.40 26.80 25.56 24.96 27.54 27.67 29.39 29.36 25.03 19.05 15.37 24.91 21.91 20.72 23.99 30.69 32.76 32.37 32.09 32.16 32.62 31.57 31.07 31.23 31.92 31.47 31.08 32.19 32.03 31.38 32.37 32.94 33.19
46.48 46.57 46.67 46.90 47.18 47.41 47.49 47.42 46.99 44.56 38.77 31.50 28.72 24.26 22.40 18.94 18.26 18.76 20.23 22.96 26.14 25.58 25.66 27.03 24.69 29.30 31.22 27.36 27.63 23.83 22.28 24.51 21.02 19.61 21.26 27.19 29.18 29.73 32.20 32.48 30.90 29.73 30.73 30.61 30.13 29.85 29.91 29.23 29.35 30.20 30.45 32.15 32.55 32.05
46.78 46.60 46.91 46.76 47.30 47.49 47.37 47.03 46.61 40.73 33.37 29.79 27.15 20.05 21.72 22.37 19.22 21.65 24.25 25.19 25.94 27.22 28.34 26.81 29.18 29.52 27.68 26.76 26.25 25.04 21.07 19.68 22.16 20.67 24.47 28.41 30.15 32.06 31.20 29.83 29.34 29.58 29.66 29.26 28.99 28.51 28.56 28.33 28.57 28.93 29.99 30.75 30.70 31.27
46.26 45.72 42.22 45.69 46.77 46.75 46.46 45.76 41.54 38.33 32.20 30.26 26.45 20.82 17.80 20.36 19.55 18.23 22.71 24.65 29.50 28.46 28.10 26.65 15.09 19.46 21.04 20.88 19.14 19.47 19.17 17.69 20.76 25.12 27.65 30.23 31.83 31.25 29.26 29.12 29.60 29.81 29.38 28.46 27.98 28.23 27.71 27.84 27.59 28.82 28.82 29.34 29.10 28.85
45.42 37.49 44.07 45.52 46.50 46.29 44.28 38.68 35.24 31.89 31.64 29.06 26.07 29.03 21.31 19.17 21.81 22.41 25.80 26.88 30.28 27.52 18.12 14.43 11.89 15.79 18.92 20.47 20.66 22.29 20.59 23.32 25.39 27.39 29.29 31.75 31.74 29.52 27.45 29.34 29.32 29.24 27.74 27.25 26.85 27.81 26.96 27.54 27.52 27.56 25.90 26.80 28.43 28.06
38.18 39.86 43.88 44.79 44.03 40.67 35.32 34.39 32.70 31.69 26.80 29.07 26.33 26.47 27.36 22.41 21.96 23.68 27.39 28.68 28.29 21.90 21.02 18.18 23.97 17.66 12.00 11.92 15.93 21.85 24.67 26.00 27.80 28.15 28.70 32.68 30.56 26.72 29.72 28.43 28.86 27.58 26.30 25.96 26.05 27.22 26.49 25.77 24.99 25.14 27.15 26.97 26.72 27.26
39.99 39.59 44.73 44.61 41.16 36.25 33.28 32.39 32.48 24.94 22.90 23.38 27.20 19.42 20.76 22.31 25.85 28.05 27.66 28.48 29.19 26.96 25.66 18.42 17.26 16.44 20.15 23.64 24.45 23.69 25.23 24.52 22.29 25.48 31.47 32.03 28.84 29.22 28.65 28.17 27.01 25.79 25.34 25.39 25.44 26.63 25.99 26.46 26.23 26.50 27.34 27.10 24.65 25.71
44.92 44.78 45.09 44.16 39.41 30.61 29.65 30.96 32.31 27.83 19.65 21.85 20.19 23.77 25.47 21.83 19.26 21.64 23.21 23.95 28.17 26.81 27.34 25.49 23.20 25.73 22.18 22.23 22.72 22.85 23.69 26.59 28.95 29.42 29.73 29.32 29.33 28.50 26.67 25.92 25.42 25.82 24.52 23.89 24.02 26.60 23.47 23.25 23.43 24.34 25.51 25.56 24.18 23.39
41.43 42.00 43.87 37.03 32.73 26.43 22.38 29.86 28.74 29.11 28.00 24.77 20.28 21.58 20.70 26.23 25.98 25.70 23.56 29.32 28.41 27.65 24.04 25.86 23.12 23.78 25.96 27.46 30.10 30.49 30.24 31.65 31.12 31.44 30.20 26.07 27.35 26.89 25.52 24.65 23.09 21.34 18.10 15.31 13.82 16.18 19.80 18.31 18.66 20.73 20.32 19.81 21.63 23.13
36.10 41.72 33.58 35.39 32.47 31.87 28.36 22.64 27.74 30.33 27.62 25.82 28.69 29.24 26.95 26.77 27.25 25.54 26.01 28.81 28.39 29.78 26.23 22.08 25.01 27.08 27.38 27.65 29.08 32.13 31.84 29.56 29.22 29.25 29.62 28.44 24.27 23.35 21.38 19.26 20.11 16.04 14.78 13.74 13.91 13.26 14.75 17.05 17.72 17.51 16.68 17.87 20.08 20.04
40.01 37.34 32.74 32.72 26.00 26.54 21.60 30.09 28.07 27.84 24.72 22.53 28.00 26.46 26.57 27.35 29.49 31.40 27.44 26.36 24.81 24.92 26.25 26.20 26.52 27.17 26.37 27.82 28.13 28.15 29.29 27.80 25.26 24.76 24.17 22.99 22.69 21.88 20.11 19.46 20.93 20.56 20.79 19.83 19.50 19.35 19.42 23.71 22.43 21.56 20.56 20.54 20.65 20.58
38.71 33.27 30.92 29.06 27.03 17.70 22.74 21.11 22.21 23.84 25.41 22.74 21.92 20.42 21.10 24.58 27.34 25.84 23.26 24.45 24.49 24.12 23.08 20.64 22.20 25.00 24.14 22.83 20.88 22.05 24.12 25.16 23.54 22.92 23.12 22.06 20.53 20.85 21.35 21.13 22.11 21.88 21.98 21.86 21.42 20.74 20.40 20.20 21.93 20.05 20.96 19.57 19.40 19.30
27.41 26.33 26.22 14.57 16.56 21.03 17.06 17.67 21.16 21.74 16.52 17.73 19.09 19.26 21.64 26.41 23.26 22.07 21.16 21.10 18.09 15.68 14.66 14.99 16.89 23.38 18.22 18.13 21.66 21.82 24.54 25.21 22.86 20.96 21.41 22.52 21.84 21.38 21.43 21.61 21.59 21.95 22.92 20.65 20.18 20.16 19.59 20.05 19.36 18.75 19.05 20.02 18.30 17.96
17.70 16.53 15.82 17.97 20.31 18.47 18.68 17.85 19.56 18.59 19.14 18.35 22.81 23.68 23.96 22.35 18.96 17.49 17.81 16.90 16.31 16.46 16.24 15.45 16.48 16.77 16.57 17.44 19.67 20.52 21.61 24.02 23.61 21.25 20.49 21.39 21.95 21.74 21.24 20.70 20.48 21.12 23.39 21.94 20.68 19.81 19.43 19.32 18.80 18.32 17.65 17.29 20.62 17.62
19.06 14.85 13.59 13.90 19.45 19.54 20.30 22.55 22.74 19.61 17.74 19.88 20.37 18.67 17.49 12.53 12.15 15.89 17.79 17.57 16.76 15.77 15.61 15.25 14.94 15.13 15.95 16.03 19.02 19.41 22.31 23.78 22.90 21.67 21.62 20.77 20.53 20.47 20.90 20.51 20.21 22.53 24.05 22.43 21.41 20.43 19.20 18.68 18.15 17.81 17.39 17.33 17.05 17.14
10.07 11.78 16.75 18.81 19.99 21.21 19.14 19.88 20.26 20.46 21.52 20.93 18.06 11.85 12.21 12.95 13.53 17.17 18.27 20.98 18.38 18.38 18.96 18.21 15.15 15.41 15.24 14.83 17.21 20.96 21.44 21.36 22.08 22.30 21.66 20.97 20.41 20.60 19.98 20.42 21.33 25.14 23.94 24.28 22.39 21.38 20.06 18.76 17.82 17.57 17.03 16.13 15.94 17.11
10.66 13.04 17.08 11.09 12.18 13.23 16.29 19.54 19.43 19.41 18.49 18.22 15.92 12.81 12.90 16.39 17.74 18.31 22.30 22.20 20.56 19.96 18.25 18.10 18.70 19.74 20.33 21.18 21.46 20.42 20.15 19.88 19.09 17.57 17.45 17.74 17.27 17.74 19.80 20.16 20.52 20.07 19.70 20.68 24.67 24.26 22.20 20.25 18.45 17.18 16.77 16.49 16.63 16.46
9.34 11.21 9.98 8.27 10.40 12.80 13.99 17.23 16.41 16.06 14.95 16.26 16.31 15.66 15.23 14.03 13.41 21.86 21.84 18.08 18.57 15.50 15.78 16.45 17.26 16.93 17.75 16.99 17.39 18.63 18.23 18.11 18.43 17.29 17.65 17.34 17.29 18.50 18.14 18.23 17.84 16.42 16.68 16.74 16.76 17.52 21.78 17.86 17.78 15.42 15.46 15.02 15.16 14.41
11.44 14.41 10.31 10.43 8.75 13.58 15.02 15.84 15.93 16.15 12.76 12.13 13.75 13.13 13.00 11.92 14.83 18.18 18.45 16.76 17.89 18.69 18.87 18.27 19.09 19.77 18.38 17.24 17.80 18.18 17.82 19.69 18.00 18.81 18.51 17.63 16.89 16.66 16.87 16.21 16.21 16.20 15.99 15.66 15.14 14.90 15.00 14.70 14.00 13.45 12.98 12.80 13.27 13.65
13.43 13.14 13.87 8.16 10.69 15.70 18.29 16.56 14.86 13.73 12.76 11.94 8.55 9.50 13.91 11.20 9.22 13.24 16.05 16.35 17.83 18.45 20.72 19.92 18.36 18.48 20.31 20.20 18.74 18.20 24.02 17.35 17.65 17.30 17.80 15.70 17.16 17.00 16.33 14.83 14.85 15.64 15.33 14.77 14.50 14.14 13.84 13.60 13.31 12.63 12.13 11.93 11.86 11.85
10.85 13.30 13.58 11.66 10.54 11.43 15.60 12.83 9.76 8.10 9.09 6.54 6.80 8.20 9.59 12.49 10.29 14.41 19.29 19.21 18.36 17.43 17.60 19.71 19.67 20.03 19.85 20.85 20.43 19.71 21.68 15.98 19.19 24.35 24.24 23.12 22.09 19.49 12.89 11.05 13.76 14.49 12.78 12.92 13.39 13.36 12.73 11.99 12.47 13.00 12.85 12.53 12.27 11.98

GFSWCAN_sfc_wetblb_354.txt.gz
Wetbulb
48.50 48.46 48.25 48.05 48.07 48.13 48.26 48.66 48.53 48.22 48.32 48.23 48.11 48.83 49.09 49.13 48.52 48.23 45.98 47.56 43.92 37.87 37.95 39.42 39.98 36.88 37.08 36.35 32.05 35.18 34.09 35.40 35.21 30.17 29.57 29.34 28.18 30.30 28.62 30.77 29.28 28.25 26.95 27.16 29.04 25.86 23.89 39.97 38.59 31.65 35.69 38.41 38.26 39.14
48.48 48.47 48.37 48.29 48.31 48.54 48.77 49.15 49.18 48.98 49.00 48.76 48.55 48.41 48.61 48.73 48.16 48.07 44.40 46.50 47.21 40.63 38.59 42.58 42.54 43.09 41.83 40.88 37.39 37.18 35.05 34.75 36.69 33.03 33.48 33.02 29.16 31.47 28.42 23.57 33.34 26.43 31.87 29.30 30.50 30.63 38.48 39.53 38.27 39.27 39.64 38.51 39.17 39.31
48.09 48.55 48.46 48.33 48.31 48.51 48.57 48.62 48.81 48.90 49.43 49.61 49.19 48.73 48.38 48.41 48.17 47.46 46.32 45.08 43.04 39.71 38.65 38.98 37.65 42.72 44.65 43.78 44.66 35.20 37.20 38.71 37.02 39.67 35.01 32.69 28.39 31.88 25.46 27.08 29.44 32.73 35.46 30.96 30.49 33.50 35.16 37.11 38.89 39.84 40.22 39.68 40.68 41.12
48.03 48.40 48.25 48.07 48.18 48.40 48.56 48.59 48.59 48.68 48.65 49.06 48.96 49.03 48.73 48.40 48.56 47.27 45.16 45.59 44.77 40.67 32.89 35.17 41.79 39.43 43.87 44.09 42.96 42.54 40.42 40.57 39.99 39.58 34.03 32.26 29.21 34.79 29.80 31.14 30.29 32.83 34.08 31.22 31.11 34.05 35.77 37.14 38.62 39.46 39.78 40.52 40.05 40.82
47.56 47.62 47.68 47.73 47.75 47.86 48.14 48.21 48.21 48.28 48.52 48.63 48.52 48.36 48.26 48.64 47.89 48.06 47.79 46.79 47.27 40.18 33.37 34.95 40.15 41.73 42.49 42.39 41.20 41.59 40.28 38.73 36.54 33.82 33.60 30.19 33.82 32.72 33.37 32.68 30.46 34.68 32.24 29.80 29.64 35.36 35.32 35.56 38.48 39.75 39.25 39.00 40.44 40.02
47.43 47.78 47.99 48.15 48.23 48.18 48.17 48.20 48.25 48.29 48.40 48.42 48.06 48.15 48.21 47.96 46.83 45.37 39.88 43.46 46.10 45.37 36.53 30.38 40.30 38.02 39.63 39.82 39.45 39.04 39.61 37.85 36.80 35.48 32.85 34.73 36.21 33.76 29.13 27.70 34.68 36.58 37.63 37.61 34.91 37.61 37.51 38.59 39.60 40.49 39.24 40.31 40.59 40.63
47.72 47.79 47.93 48.03 48.27 48.41 48.25 48.25 48.08 48.07 48.06 48.15 48.45 48.48 48.65 47.79 46.70 40.72 37.88 42.46 44.97 45.56 36.53 31.71 32.60 37.53 37.07 37.38 38.19 37.82 38.84 37.13 36.27 35.58 34.29 33.28 33.36 34.84 31.12 27.10 34.07 36.61 37.61 38.00 38.94 38.43 36.23 38.27 37.60 40.14 40.35 40.77 41.71 41.33
47.24 47.35 47.37 47.36 47.56 47.97 48.09 48.12 48.12 48.06 48.13 48.14 48.26 48.40 47.64 47.06 45.41 41.96 45.05 46.23 46.82 40.96 36.89 29.70 29.59 33.16 36.90 35.26 33.99 37.62 34.48 35.22 35.70 34.52 35.41 32.15 33.55 33.34 28.18 32.86 35.52 36.92 37.75 37.89 38.48 39.48 38.75 39.68 40.16 39.87 40.71 40.43 39.20 39.20
46.90 47.13 47.26 47.20 47.20 47.35 47.59 47.83 47.89 47.89 47.92 48.11 48.01 46.83 45.01 43.34 40.21 40.64 45.23 46.82 46.60 39.53 31.73 30.89 27.97 27.93 36.26 35.54 36.01 34.71 35.83 30.41 35.90 32.84 31.60 33.36 30.78 27.63 31.82 34.01 35.44 36.87 36.24 36.52 37.91 38.26 38.32 37.42 36.95 36.99 36.90 36.18 34.67 35.16
46.45 46.77 47.03 47.03 47.10 47.21 47.46 47.58 47.67 47.83 47.62 47.11 44.65 38.78 32.63 38.28 43.30 45.65 41.71 37.12 36.38 34.26 34.17 30.62 33.34 29.49 34.21 34.46 31.95 32.69 34.26 31.51 28.31 31.96 35.88 30.98 29.53 34.87 36.33 37.41 37.97 37.82 37.70 37.13 33.84 32.66 32.97 32.20 32.42 32.95 33.10 33.55 33.82 33.82
46.63 46.86 47.03 47.46 47.57 47.17 47.40 47.48 47.40 47.14 46.15 42.64 35.39 33.14 39.74 41.72 41.01 36.65 31.56 30.72 31.30 28.61 31.70 31.82 32.24 29.51 35.65 29.85 30.14 33.94 30.68 31.02 25.24 29.46 28.62 27.74 27.21 32.57 36.79 36.70 37.45 37.29 36.78 35.71 35.16 34.18 33.59 32.49 31.20 30.79 31.12 31.91 32.59 32.92
46.56 46.71 47.19 47.45 47.60 47.39 47.44 47.57 47.44 45.56 43.20 41.52 39.73 40.77 40.15 34.75 32.16 29.80 28.13 30.03 27.43 25.99 30.51 30.01 31.56 32.04 32.95 34.43 31.72 30.99 28.86 28.15 23.41 31.06 27.47 24.36 30.79 35.00 35.43 34.93 35.63 36.12 35.30 33.69 33.78 32.59 32.23 31.42 31.32 30.35 30.24 30.16 30.80 32.09
46.56 47.11 47.20 47.71 48.22 47.37 47.43 47.39 47.34 46.03 43.86 41.21 36.04 31.98 31.45 31.22 26.39 25.29 20.63 24.76 25.96 29.85 31.13 31.24 30.08 33.22 32.44 33.75 31.89 30.28 25.75 24.49 29.80 24.55 22.23 27.45 33.68 35.08 34.67 35.19 34.68 34.59 33.60 32.80 31.99 31.81 31.07 30.58 30.45 29.73 29.73 30.64 31.10 30.66
46.54 46.94 46.77 46.84 46.95 47.06 47.24 47.23 46.90 44.80 38.99 32.21 30.03 26.13 27.28 24.69 25.72 27.29 25.83 27.85 31.02 31.40 31.33 32.42 31.05 31.01 32.80 29.60 30.57 26.01 29.06 27.97 23.67 21.15 22.84 31.20 33.57 33.69 34.68 34.60 32.64 31.61 31.75 30.97 30.41 30.12 29.65 28.87 28.58 29.60 29.46 29.84 30.20 29.20
46.64 46.74 47.12 47.04 47.09 47.25 47.35 47.30 46.30 41.57 34.72 31.47 31.03 25.52 25.28 29.75 27.41 28.21 30.05 29.96 31.01 33.74 33.09 31.53 30.62 30.57 29.12 28.64 29.43 27.62 22.63 20.71 23.36 23.47 29.90 34.02 33.82 33.82 33.31 32.49 31.35 30.72 30.41 29.79 29.68 28.78 28.65 28.52 28.22 28.35 29.40 29.09 29.67 28.80
46.32 46.10 44.92 46.46 46.83 46.66 46.91 46.93 43.89 36.59 32.18 31.24 30.11 24.91 24.12 26.31 26.80 26.02 28.00 29.65 32.53 33.49 34.01 32.95 26.28 24.34 23.89 25.44 21.93 21.42 20.51 19.51 25.60 30.58 34.49 34.64 33.17 33.30 32.49 31.39 30.62 30.74 30.21 29.21 28.88 28.94 28.53 27.86 27.52 28.07 29.24 28.56 28.82 28.37
45.63 41.89 43.81 45.56 46.13 46.34 45.58 37.99 34.50 31.89 31.78 30.49 28.46 29.88 28.48 27.89 30.21 30.16 30.09 31.09 34.25 32.65 29.29 27.89 23.59 23.36 23.25 20.98 21.82 25.21 23.59 28.66 32.29 33.44 34.57 33.85 32.64 32.32 31.67 30.79 30.33 29.93 28.65 28.57 28.48 28.78 28.29 28.74 29.06 27.73 26.74 27.58 28.35 28.73
42.19 42.61 44.55 45.18 43.53 40.99 35.86 34.34 32.20 31.53 28.50 30.16 27.32 28.78 29.40 29.69 28.98 29.31 30.75 31.98 32.51 32.42 29.49 27.88 28.54 22.94 22.18 20.08 23.44 28.58 31.11 33.18 33.42 33.68 33.45 33.31 33.69 32.60 31.27 30.07 29.65 28.32 27.78 28.02 27.77 27.97 27.23 26.29 25.81 25.68 26.62 27.21 26.62 26.94
42.95 42.40 44.71 43.06 41.37 36.05 32.32 32.65 32.62 27.01 28.34 30.26 28.85 28.55 28.96 29.59 30.30 31.76 32.77 33.12 33.99 33.36 31.59 29.35 26.73 24.61 25.82 29.56 29.76 32.10 31.95 31.60 31.56 32.25 32.53 33.92 33.43 31.24 30.04 29.34 28.58 27.82 27.12 26.51 26.89 26.63 26.18 25.84 25.06 25.51 26.43 26.34 24.73 25.21
45.28 44.24 44.62 43.11 40.07 32.25 31.12 31.45 32.85 28.96 26.54 28.33 28.28 27.77 29.58 30.15 29.67 30.29 30.56 31.29 31.50 31.46 28.23 26.39 26.63 29.62 28.99 31.83 31.03 31.53 31.42 31.60 31.10 30.03 31.21 32.77 31.37 29.95 28.95 28.54 28.02 26.70 25.83 24.96 25.10 26.43 25.36 25.37 25.51 25.44 25.58 25.10 24.14 24.03
43.25 42.88 44.47 38.80 32.79 31.73 30.48 30.94 29.57 31.70 28.79 27.07 27.93 27.97 28.58 27.92 27.55 27.46 28.20 30.96 28.96 28.85 27.78 30.77 31.21 33.52 30.52 31.26 32.40 32.29 31.94 32.12 31.12 31.20 31.12 30.23 29.84 29.14 27.58 26.45 25.68 24.93 24.03 23.92 23.37 23.33 23.86 23.60 23.92 24.23 24.18 23.92 24.37 25.41
36.79 41.74 33.83 35.61 32.87 32.26 30.30 29.73 30.51 32.12 29.46 29.36 28.36 29.96 28.42 27.56 27.55 28.18 30.22 28.25 28.56 30.36 31.76 30.97 28.88 29.47 29.32 29.66 31.07 32.55 33.53 32.83 31.36 31.49 31.84 30.37 26.19 25.39 24.90 24.84 25.01 23.51 23.43 23.20 23.29 22.76 23.27 24.59 26.09 24.26 23.91 23.90 24.64 24.53
40.30 37.55 33.18 32.96 28.85 28.90 26.33 31.92 28.80 28.71 24.54 26.59 29.74 26.88 27.42 28.86 31.36 32.44 28.58 29.78 30.85 28.39 28.36 28.52 28.68 29.22 28.83 29.69 30.39 30.16 30.76 29.81 28.08 27.53 26.86 26.01 25.71 25.22 24.70 24.75 25.46 24.64 23.88 23.58 24.29 23.55 22.89 24.40 24.55 24.09 23.87 23.57 23.58 23.51
39.20 33.41 31.51 30.37 26.03 24.82 27.14 27.04 29.05 27.61 26.96 26.17 26.08 24.08 25.25 27.91 29.72 27.86 25.35 26.86 27.58 26.60 26.35 25.87 26.57 26.85 27.23 26.98 26.14 26.39 27.47 27.90 26.17 25.82 26.25 25.00 23.54 23.44 24.42 24.08 24.51 24.69 24.47 24.51 24.08 23.47 23.11 22.61 23.09 22.97 23.12 21.90 21.37 21.13
30.06 27.84 28.02 24.12 23.91 21.93 20.65 21.82 22.41 23.83 21.61 22.64 22.62 22.86 25.44 28.18 24.74 23.89 23.23 25.25 23.82 23.48 22.95 22.21 23.05 26.61 25.19 24.40 24.76 25.36 26.89 27.12 25.15 23.74 24.63 26.06 24.76 23.75 23.31 23.79 23.67 24.09 25.15 23.73 22.54 22.35 21.87 22.16 21.69 20.90 21.20 21.74 20.11 19.43
22.66 21.73 23.52 22.09 17.92 20.16 20.29 18.51 20.20 22.28 22.60 21.05 22.63 25.06 25.56 24.74 21.69 21.79 23.11 22.05 21.83 22.25 22.16 22.85 23.50 24.05 23.96 24.98 24.08 24.33 25.70 27.57 26.59 24.30 23.33 24.80 25.37 24.96 23.63 22.58 22.27 22.66 24.99 24.19 23.10 21.73 20.99 20.88 20.40 19.68 19.28 18.99 20.37 19.20
18.27 17.76 19.32 18.53 22.40 21.55 21.66 23.49 24.27 23.16 21.00 20.34 22.91 21.44 21.98 19.68 19.68 21.37 21.22 21.71 22.11 22.65 22.95 22.96 23.12 23.78 24.56 23.91 24.65 25.32 26.49 26.52 25.68 24.91 24.15 23.88 23.98 24.40 24.97 23.62 22.22 24.04 25.38 24.00 23.29 22.19 20.83 20.21 19.64 19.11 18.91 19.21 18.96 19.19
17.65 16.60 17.73 18.79 20.58 23.26 20.42 21.25 21.18 20.76 22.37 24.56 22.72 19.40 19.43 19.21 19.41 20.17 21.24 22.96 22.57 22.43 22.42 22.13 22.40 23.09 23.30 23.79 24.28 24.18 23.78 23.97 23.77 23.82 23.66 23.32 23.61 23.47 23.01 23.66 24.67 25.49 25.67 25.28 24.18 23.03 21.44 20.22 19.33 19.01 18.56 18.13 18.40 19.52
15.82 17.87 20.37 14.65 16.68 19.57 21.87 23.03 22.80 23.97 22.82 23.05 21.47 19.36 18.51 19.05 20.75 21.06 23.05 23.40 23.05 22.37 21.61 21.63 21.71 23.34 23.41 23.70 23.82 23.91 24.11 23.57 21.89 20.11 19.96 20.88 20.37 20.96 22.76 22.90 22.73 22.74 22.90 23.38 25.16 24.27 22.57 21.64 20.32 19.37 18.73 18.89 18.93 18.91
12.34 16.09 14.34 11.89 14.56 17.20 18.78 20.03 19.96 19.58 18.78 19.07 19.24 18.68 18.60 19.24 20.32 22.48 23.26 21.54 21.10 21.05 21.73 22.11 21.99 22.12 21.51 21.62 21.36 22.07 23.73 24.27 24.24 23.35 21.82 21.73 22.27 22.49 22.09 21.73 20.95 20.38 20.62 20.40 20.30 20.46 21.99 19.98 19.81 18.85 18.25 18.01 18.27 17.58
14.59 15.96 12.82 13.85 13.25 16.09 17.97 18.88 18.82 18.38 17.18 17.40 17.19 17.36 17.41 17.82 19.38 21.28 23.63 22.20 21.89 21.41 21.14 20.72 21.00 22.00 21.66 21.37 21.56 21.23 21.29 23.54 23.11 23.52 23.61 22.82 22.09 21.28 20.66 20.27 20.41 20.21 19.81 19.39 18.86 18.56 18.45 17.74 17.34 16.55 15.98 15.22 15.41 15.80
15.50 15.04 14.62 10.95 13.17 17.27 18.84 18.68 17.88 17.24 16.44 16.53 16.30 14.85 16.48 16.32 15.64 18.36 20.75 20.82 20.91 20.49 22.40 22.47 21.47 21.71 23.22 23.57 23.40 23.62 25.12 23.62 22.65 22.53 22.15 20.89 20.68 20.75 20.52 19.56 19.38 19.29 18.91 18.21 17.92 17.54 16.94 16.44 16.45 15.77 15.42 14.62 14.61 14.51
15.36 15.59 15.03 14.23 14.43 14.93 17.32 15.60 13.57 12.91 13.41 13.52 13.97 14.19 14.88 15.96 14.77 18.10 20.75 22.05 22.08 21.72 21.56 23.01 23.22 23.12 23.04 23.16 23.29 23.60 24.06 22.61 22.91 24.24 24.07 23.33 22.44 21.02 18.77 18.41 18.75 18.57 17.43 17.22 16.87 16.61 15.68 14.87 15.14 14.98 14.99 14.88 14.68 14.45